Yu-Gi-Oh!

Cybernetic Horizon Sneak Peek
Teilnehmende Stores (France)

Date of eventRegistration timeStart TimeFormatVenue NameVenue AddressVenue CityVenue ZipVenue countryphone contact for players' registratione-mail contact for players' registration
21/07/20182:00:00 PM2:00:00 PMSealedLa perle rare2 RUE DES BERNARDINESAIX EN PROVENCE13100France04 42 12 48 33marc.laperlerare@gmail.com
21/07/20182:00:00 PM2:00:00 PMSealedLa guilde des joueurs 46 Rue du MailANGERS49100France02 41 20 00 88info@laguilde.fr
21/07/20182:00:00 PM2:00:00 PMSealedLa guilde des joueurs 46 Rue du MailANGERS49100France02 41 20 00 88info@laguilde.fr
21/07/20182:00:00 PM2:00:00 PMSealedMagicbazar15 Avenue du RhôneANNECY74000France0678109339/0950508289l.jacquet@magicbazar.fr
21/07/20182:00:00 PM2:00:00 PMSealedTradingcardsxx' store 15 BOULEVARD KARL MARXARGENTEUIL95100France06 98 38 81 26tradingcardsxxx.buy@gmail.com
21/07/20182:00:00 PM2:00:00 PMSealedLa Diagonale du Fou Avignon34 Rue thiersAvignon84000France04 90 82 15 66avignon@la-diag.com
21/07/20182:00:00 PM2:00:00 PMSealedDream of figure25, rue du 27 JuinBEAUVAIS60000France06 78 72 54 05freret.kevin@laposte.net
21/07/20182:00:00 PM2:00:00 PMSealedLes Armes de Légende107 cours Victor HugoBègles33130France05 56 85 85 42willysane@free.fr
21/07/20182:00:00 PM2:00:00 PMSealedLES COULEURS DU JEU30 Rue Jean Jacques RousseauBOURGES18000France
21/07/20182:00:00 PM2:00:00 PMSealedDECLIC LUDIK8, rue Brunet-LecomteBOURGOIN JALLIEU38300France04 74 28 33 59pro@declicludik.fr
21/07/20182:00:00 PM2:00:00 PMSealedCROC' JEUX8, Rue Augustin MorvanBrest29200France06 71 35 09 16olivier.le-guen307@orange.fr
21/07/20182:00:00 PM2:00:00 PMSealedGeneration 80292 rue jules GuesdeBruay La Bussière62700France03 21 56 98 76collectoysfr@yahoo.fr
21/07/20182:00:00 PM2:00:00 PMSealedBazar du Bizarre Caen19 rue des teinturiersCaen14000France02.31.27.13.78caen@bazardubizarre.com
21/07/20182:00:00 PM2:00:00 PMSealedStrata Games66 rue de DouaiCambrai59400France
21/07/20182:00:00 PM2:00:00 PMSealedGuyaJeux493 route de la madeleineCayenne973France06 94 02 33 03guyajeux@yahoo.fr
21/07/20182:00:00 PM2:00:00 PMSealedLe chemin des fées10 rue des CordeliersChâlons en Champagne51000France03 26 21 35 46lechemindesfees@gmail.com
21/07/20182:00:00 PM2:00:00 PMSealedGrimgaard515 Faubourg MontmélianCHAMBERY73000France04 79 69 70 10grimgaard@wanadoo.fr
21/07/20182:00:00 PM2:00:00 PMSealedPassion du jeu53 rue des vieux greniersCholet49300France02 41 62 78 86passiondujeu@hotmail.fr
21/07/20182:00:00 PM2:00:00 PMSealedPower 91 RUE DU BAS CHAMPFLOURCLERMONT FERRAND63100France04 73 90 61 30contact@power-nine.com
21/07/20182:00:00 PM2:00:00 PMSealedLa Centrale des Jeux3 Place Louis AragonClermont Ferrand63000France04 73 35 58 09lacentraledesjeux@orange.fr
21/07/20182:00:00 PM2:00:00 PMSealedLa terre des milles jeux43 rue Jules JuilletCreil60100France03 44 55 56 41jeux-de-plateau@orange.fr
21/07/20182:00:00 PM2:00:00 PMSealedLa Diagonale du Fou Dijon44 rue jeanninDijon21000France03 80 65 82 99dijon@la-diag.com
21/07/20182:00:00 PM2:00:00 PMSealedGeek Land876 AVENUE MARECHAL DE LATTRE DE TAFREJUS83600France06 60 75 57 41rgqs@outlook.fr
21/07/20182:00:00 PM2:00:00 PMSealedAracards20 rue de la RépubliqueFrepillon95740France06 89 10 44 89aracards.compagny@gmail.com
21/07/20182:00:00 PM2:00:00 PMSealed(ASSO) Judgment Dragon72 rue de MontbriconGien45500France238677763delage_christelle@orange.fr
21/07/20182:00:00 PM2:00:00 PMSealedJoute et jeux 1 Place Vaucanson Grenoble38000France04 76 56 23 41jouteetjeux@gmail.com
21/07/20182:00:00 PM2:00:00 PMSealedSMAGGHE LILIAN10 RUE RENE CHAR - APPARTEMENT 6ISSOUDUN36100France06 42 03 31 19lilian.smagghe@hotmail.fr
21/07/20182:00:00 PM2:00:00 PMSealedZBC DIFFUSION(Antares langon)37 B RUE MAUBECLANGON33210France05 56 63 0033diflangon@gmail.com
21/07/20182:00:00 PM2:00:00 PMSealedParence48 Rue D'ingouvilleLe Havre76600France02 35 47 55 62parencecom@gmail.com
21/07/20182:00:00 PM2:00:00 PMSealedLa boite à Jeux20 rue nationaleLE MANS72000France02 43 43 80 54boite.a.jeux@libertysurf.fr
21/07/20182:00:00 PM2:00:00 PMSealed(ASSO) Play Air Animation PK 17 chemin des chevrefeuillesLe Tampon97430France06 92 19 97 09paa974@live.fr
21/07/20182:00:00 PM2:00:00 PMSealedBazar du Bizarre Lille24 rue du Pont des CominesLille59000France03 20 55 56 65lille@bazardubizarre.com
21/07/20182:00:00 PM2:00:00 PMSealedGorakou3 rue Haute VienneLimoges87000France05 55 32 20 94gorakou@gmail.com
21/07/20182:00:00 PM2:00:00 PMSealedCarta jeux297 Rue Garibaldi Lyon69007France06 59 48 23 49contact@cartajeu.com
21/07/20182:00:00 PM2:00:00 PMSealedRole Games 32 rue BarbarouxMarseille13001France04 91 42 10 29rolegames@wanadoo.fr
21/07/20182:00:00 PM2:00:00 PMSealedTrading Card Mania32 Rue de Paris MONTLIGNON95680France06 67 79 81 81/01 34 14 13 31ludovic.schirmann@wanadoo.fr
21/07/20182:00:00 PM2:00:00 PMSealedCartapapa25 boulevard Louis BlancMontpellier34000France04 67 55 73 48cartapapa@hotmail.fr
21/07/20182:00:00 PM2:00:00 PMSealedCartapapa25 boulevard Louis BlancMontpellier34000France04 67 55 73 48cartapapa@hotmail.fr
21/07/20182:00:00 PM2:00:00 PMSealed(ASSO) Duel X23 rue MarceauMouveaux59230France03 61 50 80 07lepers.xavier@numericable.fr
21/07/20182:00:00 PM2:00:00 PMSealedOrdiland74 avenue KennedyMulhouse68100France03 89 64 45 85yolande@ordiland.com
21/07/20182:00:00 PM2:00:00 PMSealedJSST8 Rue D'AlgerNICE6000France
21/07/20182:00:00 PM2:00:00 PMSealed(ASSO) Trolls de Farfadets849 rue d'armentièresNieppe59850France
21/07/20182:00:00 PM2:00:00 PMSealedLink10 RUE EMILE JAMAIS NIMES30900France06 12 18 42 90saslink@hotmail.fr
21/07/20182:00:00 PM2:00:00 PMSealedArena Jeux229 avenue de l'arc de triomphe Orange84100France04 88 84 43 14arenajeux@sfr.fr
21/07/20182:00:00 PM2:00:00 PMSealedUltra Jeux13 rue AmelotParis75011France01 48 07 06 78contact@ultrajeux.com
21/07/20182:00:00 PM2:00:00 PMSealedLe repaire du dragon44 boulevard de MagentaParis75010France01 44 84 70 69lerepairedudragon@wanadoo.fr
21/07/20182:00:00 PM2:00:00 PMSealedParkage25 rue Geoffroy Saint HilaireParis75005France09 52 40 75 22/ mag: 01 55 43 28 55cecile.gousset@parkage.com
21/07/20182:00:00 PM2:00:00 PMSealedOMEGA MANGA GAMING28 RUE ERNEST GUILLERPERIGUEUX24000France05 53 35 59 35gregory.dejean@omega-manga-gaming.com
21/07/20182:00:00 PM2:00:00 PMSealedPlace of Greek50 Rue du Président WilsonPérigueux24000France553098388popgeek@gmail.com
21/07/20182:00:00 PM2:00:00 PMSealedSortilèges Perpignan23 rue de l'argenteriePerpignan66000France09 53 62 79 84perpignan@sortileges.fr
21/07/20182:00:00 PM2:00:00 PMSealedLe Dragon Noir3, rue des 4 VentsPhithiviers45300France09 83 37 85 47ledragonnoireirl@gmail.com
21/07/20182:00:00 PM2:00:00 PMSealedLe Labo de Merlin23 rue CarnotPoitiers86000France05 49 52 18 39contact@labodemerlin.com
21/07/20182:00:00 PM2:00:00 PMSealedLe Temple du Jeu Rennes22 Rue du capitaine dreyfusRennes35000France02 99 79 18 45rennes@letempledujeu.fr
21/07/20182:00:00 PM2:00:00 PMSealedSpoutlink62 rue JasquemartRomans Sur Isere26100France04 75 72 91 66spoutlink@spoutlink.com
21/07/20182:00:00 PM2:00:00 PMSealedSortilèges Rouen90, rue Jeanne d'ArcRouen76000France235701306rouen@sortileges.fr
21/07/20182:00:00 PM2:00:00 PMSealedLe qg des avenjoueurs18 RUE DU FOSSE LOUIS VIIIROUEN76000France02 35 98 72 90vivepj@hotmail.com
21/07/20182:00:00 PM2:00:00 PMSealedJapanim StBrieuc15 rue de RohanSAINT BRIEUC22000France02 96 61 89 97japan_flobob@hotmail.fr
21/07/20182:00:00 PM2:00:00 PMSealedLa Malle à Jeux52 RUE D'ANJOUSAINT NAZAIRE44600France02 40 62 50 36contactlamalleajeux@gmail.com
21/07/20182:00:00 PM2:00:00 PMSealedLa boutique du jeu16, place Général de GaulleSAINT-LO50000France02 33 57 14 81contact@laboutiquedujeu.fr
21/07/20182:00:00 PM2:00:00 PMSealedTerre de jeux46 rue des AllobrogesSALLANCHES74700France04 50 91 31 22contact@terre2jeux.com
21/07/20182:00:00 PM2:00:00 PMSealedNAKAMAI SARLCentre commercial VillevertSenlis60300France03 44 56 02 92laurent.sole@nakamai.com
21/07/20182:00:00 PM2:00:00 PMSealedVent Divin16, rue de la division leclercStrasbourg67000France09 51 42 75 87boutique.ventdivin@gmail.com
21/07/20182:00:00 PM2:00:00 PMSealedPhilibert12 Rue de la grangeSTRASBOURG67000France03 88 32 65 35sales@philibertnet.com
21/07/20182:00:00 PM2:00:00 PMSealedL'atanière4 boulevard Pierre Toesca Toulon83000France04 94 29 05 41lataniere.net@gmail.com
21/07/20182:00:00 PM2:00:00 PMSealedFANTASY SPHERE61 GRANDE RUE ST MICHELTOULOUSE31400Francefournisseur.fantasysphere@fantasysphere.net
21/07/20182:00:00 PM2:00:00 PMSealedUnivers Parallèle36 rue saint ursulleTOULOUSE31000France05 62 30 84 74u.p@wanadoo.fr
21/07/20182:00:00 PM2:00:00 PMSealedLe palais de la Carte5 Jardin Guillaume BouzignacTours37000France06 42 71 47 96jpamphile@laposte.net
21/07/20182:00:00 PM2:00:00 PMSealedSortilèges Tours75 rue du CommerceTours37000France02 47 05 11 91tours@sortileges.fr
21/07/20182:00:00 PM2:00:00 PMSealedLa Diagonale du Fou Valence3 cité ChabertValence26000France04 75 42 29 96valence@la-diag.com
21/07/20182:00:00 PM2:00:00 PMSealedOsakatoys15 Rue FerrandValenciennes59300France327238144osakatoys@aol.com
21/07/20182:00:00 PM2:00:00 PMSealedLudik180 rue Victor HugoVillefranche sur Saône69400France04 74 65 58 30ludik69@wanadoo.fr
22/07/20182:00:00 PM2:00:00 PMSealedCarta jeux297 Rue Garibaldi Lyon69007France06 59 48 23 49contact@cartajeu.com
22/07/20182:00:00 PM2:00:00 PMSealedFANTASY SPHERE61 GRANDE RUE ST MICHELTOULOUSE31400Francefournisseur.fantasysphere@fantasysphere.net
22/07/20182:00:00 PM2:00:00 PMSealedLe palais de la Carte5 Jardin Guillaume BouzignacTours37000France06 42 71 47 96jpamphile@laposte.net

zurück

Seitenanfang